This demonstration page uses our WeatherBlox Daily Observations layout. Learn more.

Left ArrowRight Arrow

Hourly Observations for June 2, 2021

Temp ( °F °C ) Dew Point ( °F °C ) Humidity (%) Winds ( mph kmh ) Pressure ( in mb ) Visibility ( mi km ) Precip ( " mm )
12:53 am 00:53 Clear 66 18.9 57 13.9 73 73 Calm 30.14 1021 10 16 0.00 0.00
1:53 am 01:53 Clear 61 16.1 57 13.9 87 87 Calm 30.13 1020 10 16 0.00 0.00
2:53 am 02:53 Clear 63 17.2 58 14.4 84 84 VRB 3 6 30.11 1020 10 16 0.00 0.00
3:53 am 03:53 Clear 67 19.4 56 13.3 68 68 ESE 6 9 30.10 1019 10 16 0.00 0.00
4:53 am 04:53 Clear 66 18.9 57 13.9 73 73 SE 3 6 30.09 1019 10 16 0.00 0.00
5:53 am 05:53 Clear 61 16.1 58 14.4 90 90 Calm 30.09 1019 10 16 0.00 0.00
6:53 am 06:53 Sunny 63 17.2 58 14.4 84 84 Calm 30.11 1020 10 16 0.00 0.00
7:53 am 07:53 Mostly Cloudy 66 18.9 60 15.6 81 81 Calm 30.11 1020 10 16 0.00 0.00
8:53 am 08:53 Cloudy 68 20 62 16.7 81 81 SE 3 6 30.13 1020 8 13 0.00 0.00
9:53 am 09:53 Sunny 73 22.8 63 17.2 71 71 SSE 7 11 30.13 1020 9 14 0.00 0.00
10:53 am 10:53 Partly Cloudy 75 23.9 63 17.2 66 66 SSE 8 13 30.11 1020 10 16 0.00 0.00
11:53 am 11:53 Sunny 78 25.6 62 16.7 58 58 S 9 15 30.09 1019 10 16 0.00 0.00
12:53 pm 12:53 Mostly Sunny 78 25.6 60 15.6 54 54 Calm 30.09 1019 10 16 0.00 0.00
1:53 pm 13:53 Partly Cloudy 79 26.1 60 15.6 52 52 S 7 11 30.08 1019 10 16 0.00 0.00
2:53 pm 14:53 Sunny 79 26.1 59 15 50 50 SSW 8 13 30.06 1018 10 16 0.00 0.00
3:53 pm 15:53 Mostly Sunny 79 26.1 59 15 50 50 Calm 30.05 1018 10 16 0.00 0.00
4:53 pm 16:53 Sunny 80 26.7 62 16.7 54 54 VRB 3 6 30.03 1017 10 16 0.00 0.00
5:53 pm 17:53 Sunny 81 27.2 60 15.6 49 49 VRB 5 7 30.01 1016 10 16 0.00 0.00
6:53 pm 18:53 Mostly Sunny 81 27.2 59 15 47 47 SE 8 13 30.00 1016 10 16 0.00 0.00
7:53 pm 19:53 Partly Cloudy 80 26.7 59 15 49 49 SE 5 7 30.02 1017 10 16 0.00 0.00
8:53 pm 20:53 Partly Cloudy 78 25.6 61 16.1 56 56 E 6 9 30.02 1017 10 16 0.00 0.00
9:53 pm 21:53 Mostly Clear 77 25 61 16.1 58 58 ESE 5 7 30.02 1017 10 16 0.00 0.00
10:53 pm 22:53 Partly Cloudy 75 23.9 60 15.6 60 60 SE 7 11 30.03 1017 10 16 0.00 0.00
11:53 pm 23:53 Mostly Cloudy 75 23.9 59 15 58 58 SE 7 11 30.02 1017 10 16 0.00 0.00

Powered by AerisWeather